User: anonymous
Location: Unspecified
(0.0000°N, 0.0000°E)
Time: 11:43:09
(UTC+02:00)
Language:

ARIANE 5 R/B - Orbit

View from above orbital plane
View from above orbital plane
View from above satellite
View from above satellite

Ground track
Ground track

The orbit data is extracted from the following two-line orbital elements,

1 28787U 05028B   14291.36081074 -.00000224  00000-0 -35841-3 0  5577
2 28787 007.1758 048.3908 7172333 188.5288 058.2525 02.26545947 76059
Epoch (UTC): 18 October 2014 08:39:34
Eccentricity: 0.7172333
inclination: 7.1758°
perigee height: 546 km
apogee height: 35674 km
right ascension of ascending node: 48.3908°
argument of perigee: 188.5288°
revolutions per day: 2.26545947
mean anomaly at epoch: 58.2525°
orbit number at epoch: 7605

The dashed part of the orbit path shows where the satellite is in the earth's shadow,  

DLR